Location: Arbon
(43.0005°N, 0.7472°E)
Time: 14:50:10
(UTC+00:00)

Envisat - Pass Details

Date: 02 November 2020
Orbit: 764 x 766 km, 98.1° (Epoch: 30 November)

Event Time Altitude Azimuth Distance (km) Brightness Sun altitude
Rises 04:57:09 0° 26° (NNE) 3,240 6.5 -18.0°
Reaches altitude 10° 04:59:55 10° 40° (NE) 2,309 6.0 -17.5°
Maximum altitude 05:03:57 23° 93° (E) 1,572 5.6 -16.7°
Drops below altitude 10° 05:07:57 10° 146° (SE) 2,294 6.0 -16.0°
Sets 05:10:41 0° 160° (SSE) 3,215 6.6 -15.5°
